Regional Weather Roundup
Issued by NWS Charleston, SC

Current Version | Previous Version | Graphics & Text | Print | Product List | Glossary On
Versions: 1 2 3 4 5 6 7 8 9 10 11 12 13 14 15 16 17 18 19 20 21 22 23 24 25 26 27 28 29 30 31 32 33 34 35 36 37 38 39 40 41 42 43 44 45 46 47 48 49 50
000
ASUS42 KCHS 020512
RWRCHS
REGIONAL WEATHER ROUNDUP
NATIONAL WEATHER SERVICE CHARLESTON SC
100 AM EDT SUN AUG 02 2015

NOTE: "FAIR" INDICATES FEW OR NO CLOUDS BELOW 12,000 FEET WITH NO
SIGNIFICANT WEATHER AND/OR OBSTRUCTIONS TO VISIBILITY.

NOT ALL STATIONS ARE QUALITY CONTROLLED BY THE NATIONAL
WEATHER SERVICE. USE DATA WITH CAUTION...ESPECIALLY
DEWPOINT OBSERVATIONS.

SCZ027-030-031-034>040-042>050-020600-
...SOUTHEAST SOUTH CAROLINA...

CITY           SKY/WX    TMP DP  RH WIND       PRES   REMARKS
N CHARLESTON   CLEAR     78  73  84 CALM      29.92F
WATERFRONT PRK   N/A     81  76  85 VRB3      29.90F
MOUNT PLEASANT FAIR      73  73 100 CALM      29.93S FOG
JOHNS ISLAND   FAIR      75  73  94 CALM      29.92F
PINOPOLIS      NOT AVBL
MONCKS CORNER  FAIR      75  72  88 CALM      29.93S FOG
SUMMERVILLE    FAIR      73  73 100 CALM      29.94S
BEAUFORT MCAS  CLEAR     77  75  93 CALM      29.92S
BEAUFORT ARPT  FAIR      77  77 100 CALM      29.91F
HILTON HEAD IS PTCLDY    79  75  89 S3        29.93S
WALTERBORO     CLEAR     77  73  88 CALM      29.93F
ALLENDALE      FAIR      73  72  94 CALM      29.92S

...SOUTHERN MIDLANDS AND PEE DEE...

CITY           SKY/WX    TMP DP  RH WIND       PRES   REMARKS
GEORGETOWN     NOT AVBL
KINGSTREE      NOT AVBL
ORANGEBURG     CLEAR     75  72  90 CALM      29.94S
BARNWELL       FAIR      75  73  94 CALM      29.94S
AIKEN          MOCLDY    73  68  83 CALM      29.98S
MANNING        RAIN      77  72  83 CALM      29.93F
COLUMBIA       PTCLDY    78  70  76 CALM      29.93S
SUMTER         PTCLDY    77  71  84 S5        29.91F
FLORENCE       CLEAR     77  75  93 SE3       29.93R
MYRTLE BEACH   CLEAR     77  70  78 W5        29.95S
N MYRTLE BEACH PTCLDY    78  73  84 NW3       29.93S

$$

GAZ063-065-086>088-099>101-113>116-118-119-134>141-150-020600-
...SOUTHEAST GEORGIA...

CITY           SKY/WX    TMP DP  RH WIND       PRES   REMARKS
SAVANNAH ARPT  PTCLDY    77  74  90 N3        29.92R
HUNTER AAF     PTCLDY    78  77  99 S3        29.89S
FORT STEWART   NOT AVBL
STATESBORO     PTCLDY    74  32  21 CALM      29.92S
SYLVANIA       PTCLDY    76  76  99 CALM      29.93S
CLAXTON        NOT AVBL

...CSRA...CENTRAL AND FAR SOUTHEAST GEORGIA...

CITY           SKY/WX    TMP DP  RH WIND       PRES   REMARKS
THOMSON        CLEAR     76  74  96 CALM      29.97F
AUGUSTA-BUSH   PTCLDY    74  72  93 SE3       29.92S
AUGUSTA-DANIEL CLEAR     78  72  81 SE5       29.94S
SWAINSBORO     FAIR     N/A N/A N/A CALM      29.93F
VIDALIA        CLEAR     73  72  94 CALM      29.92S
EASTMAN        FAIR      74  74 100 CALM      29.94S
HAZLEHURST     MOCLDY    75  75 100 CALM      29.91S
ALMA           CLOUDY    76  75  97 CALM      29.90S
WAYCROSS       CLOUDY    80  79  96 SE6       29.91S
JESUP          CLOUDY    81  77  89 S3        29.92R
BAXLEY         CLOUDY    75  73  94 NE3       29.91S
BRUNSWICK      CLOUDY    79  73  83 SW7       29.93R
SAINT SIMONS   MOCLDY    79  74  84 S8        29.92R

$$

SCZ027-028-034-036>038-045-046-048>050-GAZ119-141-020600-
...LAKE AND SUPPLEMENTAL COASTAL OBSERVATIONS...

STATION/POSITION TIME  TEMP    WIND        PRES    WAVE   SWELL
                       AIR SEA DIR/SP/G            HT/PER HT/PER/DIR
                 (UTC) (F)     (DEG/KT/KT) (MB)    (FT/S) (FT/S/D)
UPR LAKE MARION  NOT AVBL
WINYAH BAY       NOT AVBL
LAKE MURRAY      0400   82     200/  7/ 10 1012.9S
ACE BASIN NERRS  NOT AVBL
FORT PULASKI     0400   81 86  160/  4/  6 1013.3F
SAPELO ISLAND    0400   81     210/  7     1013.0S

$$

ANZ835-935-AMZ111-154-330-350-352-354-370-450-454-472-020600-
...C-MAN AND BUOY OBSERVATIONS...

STATION/POSITION TIME  TEMP    WIND        PRES    WAVE   SWELL
                       AIR SEA DIR/SP/G            HT/PER HT/PER/DIR
                 (UTC) (F)     (DEG/KT/KT) (MB)    (FT/S) (FT/S/D)
BUOY 41004       0450   82 84  240/  8/ 10 1012.9F   4/ 6   3/ 6
BUOY 41008       0450   81 83  190/ 16/ 17 1013.0R   3/ 6   2/150/ 9
FOLLY BEACH CMAN 0400   81     180/  8/  9 1013.5F
CAPERS NEARSHORE 0408   81     220/  8/ 10 1013.5F
FRIPP NEARSHORE  0400   81     320/ 10/ 12 1012.9


STATION/POSITION TIME  TEMP    WIND        PRES    WAVE   SWELL
                       AIR SEA DIR/SP/G            HT/PER HT/PER/DIR
                 (UTC) (F)     (DEG/KT/KT) (MB)    (FT/S) (FT/S/D)
5E ST. MARYS GA  0421      83                N/A     3/ 5
FRYING PAN BUOY  0450   83 83  210/ 12/ 14 1013.6R   4/ 8   3/150/ 8
BUOY 41025       0450   82 85  240/ 14/ 16 1012.6F   4/ 7   2/180/ 7
CAPE LOOKOUT NC  0400   80     230/  9/ 12 1012.9F
BUOY 41002       0450   83 81  210/ 17/ 19 1015.8F   7/ 7   2/ 50/11
BUOY 41010       0420   81 83  210/ 10/ 12 1016.7F
ST AUGUSTINE FL  0500   76 81  190/ 12/ 14 1014.4F


$$


USA.gov is the U.S. government's official web portal to all federal, state and local government web resources and services.